Location: Allie Creek
(37.5926°N, 89.8526°W)
Time: 22:37:54
(UTC+00:00)

Daily predictions for brighter satellites

Satellite Brightness Start Highest point End
(mag) Time Altitude Azimuth Time Altitude Azimuth Time Altitude Azimuth
Cosmos 1733 0.9 12:02:05 10° S 12:03:41 81° E 12:05:18 10° N
Helios 1A Rocket 2.9 12:00:36 10° S 12:03:43 39° W 12:06:52 10° NNW
BREEZE-M DEB (TANK) 2.2 12:02:55 10° SW 12:05:45 84° NNW 12:08:09 10° NE
Cosmos 2026 Rocket 4.3 12:00:09 10° SSW 12:05:46 40° WNW 12:11:28 10° N
Cosmos 2082 Rocket 3.9 12:06:06 12° NW 12:06:06 12° NW 12:08:04 10° NNW
Cosmos 1626 Rocket 3.5 12:02:00 10° S 12:06:25 83° W 12:10:50 10° N
SL-16 R/B 2.2 12:03:18 10° NNW 12:08:54 65° WSW 12:14:29 10° S
Cosmos 1937 Rocket 4.3 12:08:11 10° NW 12:12:29 29° W 12:16:52 10° SSW
SL-4 R/B 3.8 12:18:45 10° NNW 12:20:32 14° NNE 12:22:19 10° NE
ARIANE 5 R/B 3.3 12:16:23 10° NNE 12:21:32 58° E 12:26:39 10° S
IRIDIUM 104 4.3 12:18:23 10° SSW 12:23:32 63° W 12:28:43 10° N
ISS 0.0 12:23:09 10° SSE 12:24:20 12° SE 12:25:33 10° ESE
COSMO-SKYMED 1 3.6 12:21:05 10° SSW 12:24:23 23° W 12:27:43 10° NW
USA 267 4.5 12:20:31 10° NE 12:26:47 47° SE 12:33:01 10° SSW
Cosmos-2242 3.6 12:23:13 10° NNW 12:27:04 34° W 12:30:51 10° SSW
OAO 2 Rocket 4.1 12:23:06 10° WSW 12:28:08 54° SSE 12:33:05 10° E
Okean 1-7 Rocket 4.2 12:27:59 10° S 12:32:26 64° E 12:36:53 10° NNE
Cosmos 2278 4.1 12:27:10 10° NW 12:32:34 46° WSW 12:37:54 10° S
Cosmos 1814 Rocket 4.5 12:28:25 10° SW 12:33:15 38° WNW 12:38:09 10° N
BREEZE-M DEB (TANK) 3.7 12:31:23 10° NW 12:34:46 51° NNE 12:44:16 10° ESE
Cosmos 1553 Rocket 4.1 12:28:38 10° NNW 12:34:56 63° W 12:41:14 10° S
ATLAS 2AS CENTAUR R/B 2.8 12:31:18 10° SW 12:38:26 81° WNW 12:45:23 10° NNE
UNK 3.7 23:03:42 10° NNE 23:08:16 71° ESE 23:12:47 10° S
Cosmos 1570 Rocket 4.1 23:05:53 10° NNW 23:11:14 87° ENE 23:16:31 10° SSE
Cosmos 836 Rocket 4.5 23:08:32 10° NNW 23:13:49 82° ENE 23:19:04 10° SSE
Cosmos 1486 Rocket 4.3 23:09:31 10° SSW 23:14:41 72° WNW 23:19:55 10° NNE
Cosmos 2279 Rocket 4.4 23:12:46 10° SSW 23:18:55 68° W 23:25:08 10° N
Cosmos 1743 2.2 23:16:20 10° N 23:19:33 59° E 23:22:43 10° SSE
Cosmos 773 Rocket 4.0 23:21:32 10° NNW 23:26:46 85° ENE 23:32:01 10° SSE
Cosmos 2098 Rocket 3.5 23:23:08 10° SSW 23:26:53 59° W 23:31:21 10° N
Cosmos 1825 Rocket 4.3 23:24:06 10° NNE 23:27:55 29° ENE 23:31:41 10° SE
Cosmos 1758 Rocket 3.9 23:26:02 10° NNW 23:30:19 68° W 23:34:32 10° S
Cosmos 2297 Rocket 2.2 23:25:01 10° NNW 23:30:39 66° ENE 23:36:16 10° SSE
NOSS 2-3 (C) 3.6 23:28:02 10° S 23:31:23 38° ESE 23:34:01 14° NE
Cosmos 2151 2.8 23:27:51 10° N 23:32:00 70° E 23:36:08 10° SSE
IRIDIUM 106 4.3 23:26:49 10° N 23:32:02 71° E 23:37:13 10° S
Cosmos 990 Rocket 4.0 23:28:22 10° S 23:33:24 61° ESE 23:38:28 10° NNE
ARIANE 5 R/B 2.4 23:29:27 10° SSE 23:34:26 68° ENE 23:39:30 10° N
IRS-P3 4.3 23:31:14 10° SE 23:36:19 49° ENE 23:41:25 10° N
USA 238 DEB 3.8 23:31:19 10° S 23:36:53 44° ESE 23:42:19 12° NE
USA 238 3.9 23:31:26 10° S 23:37:00 43° ESE 23:42:24 13° NE
Cosmos 2058 Rocket 4.2 23:37:45 10° SE 23:41:13 23° E 23:43:31 16° NE
Cosmos 1933 3.1 23:41:11 10° S 23:45:00 90° E 23:48:51 10° N
SPOT 1/Viking Rocket 3.9 23:40:36 10° SE 23:45:24 40° ENE 23:50:14 10° N
SJ-12 3.6 23:43:39 10° SSE 23:47:25 85° ENE 23:51:12 10° N
Meteor 1-25 Rocket 4.2 23:42:37 10° N 23:48:26 67° E 23:54:07 10° SSE
BlueWalker 3 1.8 23:45:44 10° NW 23:49:22 84° SW 23:52:59 10° SE
Cosmos 1607 3.9 23:43:11 10° NNW 23:49:26 72° ENE 23:55:44 10° SE
SAR-Lupe-3 3.5 23:47:41 14° NNE 23:49:45 88° ESE 23:52:14 10° SSW
Cosmos 1980 Rocket 2.5 23:45:28 10° S 23:50:48 45° ESE 23:55:10 15° NE
Hubble Space Telescope 3.0 23:51:35 10° S 23:53:00 12° SSE 23:54:25 10° SE
AQUARIUS 4.0 23:49:15 10° SSE 23:53:39 83° ENE 23:58:04 10° N
Cosmos 1076 Rocket 3.9 23:51:47 10° N 23:55:48 38° ENE 23:59:49 10° SSE
